Togiak, AK

8:24 PM AKDT on April 25, 2018 (GMT -0800)
Togiak

Weather History for PATG - October, 2013

Change the Weather History Date:

Thursday, October 10, 2013

  Actual Average Record
Temperature  
Mean Temperature 45 °F -  
Max Temperature 46 °F 40 °F 59 °F (2012)
Min Temperature 44 °F 28 °F 15 °F (1996)
Degree Days  
Heating Degree Days 20    
Moisture  
Dew Point 43 °F    
Average Humidity 94    
Maximum Humidity 100    
Minimum Humidity 87    
Precipitation  
Precipitation 0.07 in - - ()
Sea Level Pressure  
Sea Level Pressure 29.47 in    
Wind  
Wind Speed 19 mph (South)    
Max Wind Speed 25 mph    
Max Gust Speed -    
Visibility 5 miles    
Events      
Averages and records for this station are not official NWS values.
T = Trace of Precipitation, MM = Missing Value Source: NWS Daily Summary

Daily Weather History Graph

Daily Weather History Graph

Search for Another Location

Airport or City:

Astronomy

Oct. 10, 2013 Rise Set
Actual Time 9:08 AM AKDT 7:47 PM AKDT
Civil Twilight 8:27 AM AKDT 8:27 PM AKDT
Nautical Twilight 7:40 AM AKDT 9:14 PM AKDT
Astronomical Twilight 6:53 AM AKDT 10:02 PM AKDT
Moon 4:04 PM AKDT (10/10) 11:46 PM AKDT (10/10)
Length of Visible Light 12h 00m
Length of Day
10h 39m
Waxing Crescent, 37% of the Moon is Illuminated
Oct 10
Waxing Crescent
Oct 11
First Quarter
Oct 18
Full
Oct 26
Last Quarter
Nov 3
New

Hourly Weather History & Observations

Time (AKDT) Temp. Windchill Dew Point Humidity Pressure Visibility Wind Dir Wind Speed Gust Speed Precip Events Conditions
12:16 AM 44.6 °F 35.7 °F 44.6 °F 100% 29.52 in 3.0 mi SSE 24.2 mph - N/A   Overcast
12:36 AM 44.6 °F 35.5 °F 44.6 °F 100% 29.51 in 3.0 mi SSE 25.3 mph - 0.01 in   Overcast
12:56 AM 44.6 °F 35.7 °F 44.6 °F 100% 29.50 in 4.0 mi South 24.2 mph - 0.03 in   Overcast
1:16 AM 44.6 °F 35.7 °F 44.6 °F 100% 29.50 in 4.0 mi South 24.2 mph - 0.01 in   Overcast
1:36 AM 44.6 °F 35.9 °F 42.8 °F 93% 29.49 in 2.0 mi South 23.0 mph - 0.01 in   Overcast
1:56 AM 44.6 °F 35.9 °F 44.6 °F 100% 29.49 in 1.8 mi South 23.0 mph - 0.01 in   Overcast
2:16 AM 44.6 °F 35.7 °F 44.6 °F 100% 29.48 in 2.0 mi South 24.2 mph - N/A   Overcast
2:36 AM 44.6 °F 36.1 °F 42.8 °F 93% 29.48 in 5.0 mi South 21.9 mph - N/A   Overcast
2:56 AM 44.6 °F 36.1 °F 44.6 °F 100% 29.47 in 1.5 mi South 21.9 mph - N/A   Overcast
3:16 AM 44.6 °F 36.9 °F 44.6 °F 100% 29.48 in 2.0 mi South 18.4 mph - N/A   Overcast
3:36 AM 44.6 °F 37.2 °F 42.8 °F 93% 29.47 in 2.5 mi South 17.3 mph - N/A   Overcast
3:56 AM 44.6 °F 36.9 °F 44.6 °F 100% 29.46 in 2.5 mi South 18.4 mph - N/A   Overcast
4:16 AM 44.6 °F 37.2 °F 42.8 °F 93% 29.46 in 4.0 mi South 17.3 mph - N/A   Overcast
4:36 AM 44.6 °F 36.9 °F 42.8 °F 93% 29.45 in 7.0 mi South 18.4 mph - N/A   Overcast
4:56 AM 44.6 °F 36.9 °F 44.6 °F 100% 29.45 in 2.0 mi South 18.4 mph - 0.01 in   Overcast
5:16 AM 44.6 °F 37.8 °F 42.8 °F 93% 29.44 in 5.0 mi South 15.0 mph - N/A   Overcast
5:36 AM 44.6 °F 37.4 °F 42.8 °F 93% 29.44 in 6.0 mi South 16.1 mph - N/A   Mostly Cloudy
5:56 AM 44.6 °F 37.2 °F 42.8 °F 93% 29.44 in 7.0 mi South 17.3 mph - N/A   Overcast
6:16 AM 44.6 °F 36.9 °F 42.8 °F 93% 29.44 in 9.0 mi South 18.4 mph - 0.01 in   Overcast
6:36 AM 44.6 °F 37.4 °F 42.8 °F 93% 29.43 in 5.0 mi South 16.1 mph - 0.01 in   Overcast
6:56 AM 44.6 °F 37.8 °F 42.8 °F 93% 29.43 in 2.5 mi South 15.0 mph - 0.01 in   Overcast
7:16 AM 44.6 °F 37.4 °F 42.8 °F 93% 29.43 in 5.0 mi South 16.1 mph - N/A   Overcast
7:36 AM 44.6 °F 37.4 °F 42.8 °F 93% 29.43 in 4.0 mi South 16.1 mph - N/A   Overcast
7:56 AM 44.6 °F 37.8 °F 42.8 °F 93% 29.43 in 5.0 mi South 15.0 mph - N/A   Overcast
8:16 AM 44.6 °F 36.9 °F 42.8 °F 93% 29.43 in 5.0 mi South 18.4 mph - N/A   Mostly Cloudy
8:36 AM 44.6 °F 38.1 °F 42.8 °F 93% 29.43 in 5.0 mi South 13.8 mph - N/A   Scattered Clouds
8:56 AM 44.6 °F 37.8 °F 42.8 °F 93% 29.43 in 6.0 mi SSW 15.0 mph - N/A   Mostly Cloudy
9:16 AM 44.6 °F 37.4 °F 42.8 °F 93% 29.44 in 7.0 mi South 16.1 mph - N/A   Overcast
9:36 AM 44.6 °F 37.8 °F 42.8 °F 93% 29.43 in 5.0 mi South 15.0 mph - N/A   Overcast
9:56 AM 44.6 °F 37.2 °F 42.8 °F 93% 29.43 in 5.0 mi South 17.3 mph - N/A   Overcast
10:16 AM 44.6 °F 37.2 °F 42.8 °F 93% 29.43 in 5.0 mi South 17.3 mph - N/A   Mostly Cloudy
10:36 AM 44.6 °F 37.8 °F 42.8 °F 93% 29.44 in 5.0 mi South 15.0 mph - N/A   Mostly Cloudy
10:56 AM 44.6 °F 38.1 °F 42.8 °F 93% 29.44 in 5.0 mi South 13.8 mph - N/A   Overcast
11:16 AM 44.6 °F 37.4 °F 42.8 °F 93% 29.45 in 5.0 mi South 16.1 mph - N/A   Overcast
11:36 AM 44.6 °F 36.9 °F 42.8 °F 93% 29.45 in 5.0 mi South 18.4 mph - N/A   Overcast
11:56 AM 44.6 °F 36.9 °F 42.8 °F 93% 29.45 in 5.0 mi South 18.4 mph - N/A   Mostly Cloudy
12:16 PM 44.6 °F 37.2 °F 42.8 °F 93% 29.46 in 5.0 mi South 17.3 mph - N/A   Overcast
12:36 PM 44.6 °F 37.4 °F 42.8 °F 93% 29.46 in 5.0 mi South 16.1 mph - N/A   Overcast
1:16 PM 44.6 °F 37.2 °F 42.8 °F 93% 29.46 in 5.0 mi South 17.3 mph - N/A   Overcast
1:36 PM 46.4 °F 39.2 °F 42.8 °F 87% 29.47 in 5.0 mi South 18.4 mph - N/A   Overcast
1:56 PM 46.4 °F 39.5 °F 42.8 °F 87% 29.47 in 5.0 mi South 17.3 mph - N/A   Overcast
2:16 PM 46.4 °F 39.5 °F 44.6 °F 93% 29.47 in 5.0 mi South 17.3 mph - N/A   Overcast
2:36 PM 46.4 °F 39.5 °F 42.8 °F 87% 29.47 in 5.0 mi South 17.3 mph - N/A   Overcast
2:56 PM 46.4 °F 39.5 °F 44.6 °F 93% 29.47 in 5.0 mi South 17.3 mph - N/A   Overcast
3:16 PM 46.4 °F 39.2 °F 44.6 °F 93% 29.47 in 5.0 mi South 18.4 mph - N/A   Overcast
3:36 PM 44.6 °F 36.1 °F 44.6 °F 100% 29.47 in 3.0 mi South 21.9 mph - N/A   Mostly Cloudy
3:56 PM 44.6 °F 36.9 °F 42.8 °F 93% 29.47 in 3.0 mi South 18.4 mph - N/A   Mostly Cloudy
4:16 PM 46.4 °F 39.2 °F 44.6 °F 93% 29.47 in 4.0 mi South 18.4 mph - N/A   Overcast
4:36 PM 46.4 °F 39.5 °F 44.6 °F 93% 29.47 in 4.0 mi South 17.3 mph - N/A   Mostly Cloudy
4:56 PM 44.6 °F 37.2 °F 42.8 °F 93% 29.47 in 5.0 mi South 17.3 mph - N/A   Overcast
5:16 PM 44.6 °F 36.6 °F 42.8 °F 93% 29.47 in 3.0 mi South 19.6 mph - N/A   Overcast
5:36 PM 44.6 °F 37.2 °F 42.8 °F 93% 29.47 in 3.0 mi South 17.3 mph - 0.01 in   Mostly Cloudy
5:56 PM 44.6 °F 37.8 °F 42.8 °F 93% 29.47 in 4.0 mi SSW 15.0 mph - 0.01 in   Mostly Cloudy
6:16 PM 44.6 °F 37.4 °F 42.8 °F 93% 29.47 in 4.0 mi South 16.1 mph - N/A   Overcast
6:36 PM 44.6 °F 37.8 °F 42.8 °F 93% 29.48 in 5.0 mi South 15.0 mph - N/A   Overcast
6:56 PM 44.6 °F 37.8 °F 42.8 °F 93% 29.48 in 5.0 mi South 15.0 mph - N/A   Overcast
7:16 PM 44.6 °F 37.4 °F 42.8 °F 93% 29.49 in 6.0 mi South 16.1 mph - N/A   Overcast
7:36 PM 44.6 °F 37.4 °F 42.8 °F 93% 29.49 in 7.0 mi South 16.1 mph - N/A   Overcast
7:56 PM 44.6 °F 37.2 °F 42.8 °F 93% 29.49 in 7.0 mi South 17.3 mph - N/A   Overcast
8:16 PM 44.6 °F 37.8 °F 42.8 °F 93% 29.50 in 5.0 mi South 15.0 mph - N/A   Overcast
8:36 PM 44.6 °F 37.2 °F 42.8 °F 93% 29.50 in 5.0 mi South 17.3 mph - N/A   Mostly Cloudy
8:56 PM 44.6 °F 37.4 °F 42.8 °F 93% 29.51 in 6.0 mi South 16.1 mph - N/A   Mostly Cloudy
9:16 PM 44.6 °F 37.8 °F 42.8 °F 93% 29.51 in 6.0 mi South 15.0 mph - N/A   Mostly Cloudy
9:36 PM 44.6 °F 37.8 °F 42.8 °F 93% 29.52 in 8.0 mi South 15.0 mph - N/A   Overcast
9:56 PM 44.6 °F 38.1 °F 42.8 °F 93% 29.52 in 8.0 mi South 13.8 mph - N/A   Overcast
10:16 PM 44.6 °F 37.4 °F 42.8 °F 93% 29.53 in 8.0 mi South 16.1 mph - N/A   Overcast
10:36 PM 44.6 °F 37.8 °F 42.8 °F 93% 29.53 in 8.0 mi South 15.0 mph - N/A   Overcast
10:56 PM 44.6 °F 38.1 °F 42.8 °F 93% 29.54 in 5.0 mi South 13.8 mph - N/A   Overcast
11:16 PM 44.6 °F 38.1 °F 42.8 °F 93% 29.54 in 7.0 mi South 13.8 mph - N/A   Overcast
11:36 PM 44.6 °F 37.8 °F 42.8 °F 93% 29.55 in 6.0 mi South 15.0 mph - N/A   Overcast
11:56 PM 44.6 °F 37.8 °F 42.8 °F 93% 29.55 in 9.0 mi South 15.0 mph - N/A   Overcast